Weather History for KCQW - January, 2014

Change the Weather History Date:

Tuesday, January 14, 2014

  Actual Average (KFLO) Record (KFLO)
Temperature  
Mean Temperature 47 °F 45 °F  
Max Temperature 57 °F 55 °F 79 °F (2013)
Min Temperature 37 °F 34 °F 16 °F (2011)
Degree Days  
Heating Degree Days 18 20  
Month to date heating degree days 287  
Since 1 July heating degree days 1266  
Cooling Degree Days 0 0  
Month to date cooling degree days 0  
Year to date cooling degree days 0  
Moisture  
Dew Point 47 °F    
Average Humidity 96    
Maximum Humidity 100    
Minimum Humidity 67    
Precipitation  
Precipitation 0.22 in 0.11 in 1.61 in (1995)
Month to date precipitation 1.49  
Year to date precipitation 1.49  
Sea Level Pressure  
Sea Level Pressure 29.89 in    
Wind  
Wind Speed - (North)    
Max Wind Speed -    
Max Gust Speed -    
Visibility 6 miles    
Events Fog , Rain    
T = Trace of Precipitation, MM = Missing Value Source: NWS Daily Summary

Daily Weather History Graph

Daily Weather History Graph

Search for Another Location

Airport or City:

Trip Planner

Search our weather history database for the weather conditions in past years. The results will help you decide how hot, cold, wet, or windy it might be!

Date:

Astronomy

Jan. 14, 2014 Rise Set
Actual Time 7:26 AM EST 5:31 PM EST
Civil Twilight 6:59 AM EST 5:58 PM EST
Nautical Twilight 6:28 AM EST 6:29 PM EST
Astronomical Twilight 5:58 AM EST 7:00 PM EST
Moon 4:33 PM EST (1/14) 6:01 AM EST (1/14)
Length of Visible Light 10h 59m
Length of Day
10h 04m
Waxing Gibbous, 98% of the Moon is Illuminated
Jan 14
Waxing Gibbous
Jan 15
Full
Jan 24
Last Quarter
Jan 30
New
Feb 6
First Quarter

Hourly Weather History & Observations

Time (EST) Temp. Dew Point Humidity Pressure Visibility Wind Dir Wind Speed Gust Speed Precip Events Conditions
12:15 AM 48.2 °F 48.2 °F 100% 29.97 in 8.0 mi North - - 0.01 in Rain Light Rain
12:35 AM 48.2 °F 48.2 °F 100% 29.94 in 7.0 mi North - - 0.03 in Rain Light Rain
12:55 AM 48.2 °F 48.2 °F 100% 29.92 in 7.0 mi North - - 0.05 in Rain Light Rain
1:15 AM 48.2 °F 48.2 °F 100% 29.90 in 5.0 mi North - - 0.04 in Rain Light Rain
1:35 AM 48.2 °F 48.2 °F 100% 29.92 in 9.0 mi North - - 0.06 in Rain Light Rain
1:55 AM 48.2 °F 48.2 °F 100% 29.90 in 9.0 mi North - - 0.06 in   Overcast
2:15 AM 48.2 °F 48.2 °F 100% 29.89 in 10.0 mi North - - 0.01 in   Mostly Cloudy
2:35 AM 48.2 °F 48.2 °F 100% 29.89 in 10.0 mi North - - 0.01 in   Scattered Clouds
2:55 AM 48.2 °F 48.2 °F 100% 29.88 in 6.0 mi North - - 0.01 in   Mostly Cloudy
3:15 AM 48.2 °F 48.2 °F 100% 29.88 in 5.0 mi North - - N/A Rain Light Rain
3:35 AM 48.2 °F 48.2 °F 100% 29.88 in 5.0 mi North - - N/A   Overcast
3:55 AM 48.2 °F 48.2 °F 100% 29.87 in 6.0 mi North - - N/A   Overcast
4:15 AM 48.2 °F 48.2 °F 100% 29.86 in 5.0 mi North - - N/A   Overcast
4:35 AM 48.2 °F 48.2 °F 100% 29.85 in 8.0 mi North - - N/A   Overcast
4:55 AM 48.2 °F 48.2 °F 100% 29.85 in 6.0 mi North - - N/A   Overcast
5:15 AM 48.2 °F 48.2 °F 100% 29.84 in 3.0 mi North - - N/A   Overcast
5:35 AM 48.2 °F 48.2 °F 100% 29.82 in 2.5 mi North - - N/A   Overcast
5:55 AM 48.2 °F 48.2 °F 100% 29.82 in 1.8 mi North - - N/A   Overcast
6:15 AM 48.2 °F 48.2 °F 100% 29.82 in 7.0 mi North - - N/A   Overcast
6:35 AM 48.2 °F 48.2 °F 100% 29.81 in 6.0 mi North - - N/A   Overcast
6:55 AM 48.2 °F 48.2 °F 100% 29.83 in 5.0 mi North - - N/A   Overcast
7:15 AM 48.2 °F 48.2 °F 100% 29.81 in 4.0 mi North - - N/A   Overcast
7:35 AM 48.2 °F 48.2 °F 100% 29.82 in 5.0 mi North - - N/A   Mostly Cloudy
7:55 AM 48.2 °F 48.2 °F 100% 29.83 in 2.5 mi North - - N/A   Overcast
8:15 AM 48.2 °F 48.2 °F 100% 29.81 in 3.0 mi North - - N/A   Overcast
8:35 AM 48.2 °F 48.2 °F 100% 29.83 in 2.5 mi North - - N/A   Overcast
8:55 AM 48.2 °F 48.2 °F 100% 29.82 in 0.8 mi North - - N/A Rain Light Rain
9:15 AM 48.2 °F 48.2 °F 100% 29.82 in 0.8 mi North - - N/A Rain Light Rain
9:35 AM 48.2 °F 48.2 °F 100% 29.82 in 2.5 mi North - - 0.01 in   Overcast
9:55 AM 48.2 °F 48.2 °F 100% 29.82 in 5.0 mi North - - 0.01 in   Overcast
10:15 AM 50.0 °F 50.0 °F 100% 29.82 in 3.0 mi North - - N/A   Overcast
10:35 AM 50.0 °F 50.0 °F 100% 29.82 in 1.2 mi North - - N/A Rain Light Rain
10:55 AM 50.0 °F 50.0 °F 100% 29.82 in 3.0 mi North - - N/A   Overcast
11:15 AM 50.0 °F 50.0 °F 100% 29.83 in 1.5 mi North - - 0.03 in Rain Rain
11:35 AM 50.0 °F 50.0 °F 100% 29.84 in 2.5 mi North - - 0.06 in Rain Light Rain
11:55 AM 50.0 °F 50.0 °F 100% 29.85 in 2.5 mi North - - 0.08 in Rain Light Rain
12:15 PM 50.0 °F 50.0 °F 100% 29.85 in 3.0 mi North - - 0.01 in Rain Light Rain
12:35 PM 50.0 °F 50.0 °F 100% 29.83 in 5.0 mi North - - 0.01 in Rain Light Rain
12:55 PM 50.0 °F 50.0 °F 100% 29.84 in 9.0 mi North - - 0.01 in Rain Light Rain
1:15 PM 50.0 °F 50.0 °F 100% 29.83 in 5.0 mi North - - N/A Rain Light Rain
1:35 PM 50.0 °F 50.0 °F 100% 29.84 in 10.0 mi North - - N/A   Overcast
1:55 PM 51.8 °F 50.0 °F 94% 29.85 in 10.0 mi North - - N/A   Mostly Cloudy
2:15 PM 53.6 °F 50.0 °F 88% 29.85 in 10.0 mi North - - N/A   Scattered Clouds
2:35 PM 55.4 °F 48.2 °F 77% 29.85 in 10.0 mi North - - N/A   Partly Cloudy
2:55 PM 55.4 °F 48.2 °F 77% 29.86 in 10.0 mi North - - N/A   Partly Cloudy
3:15 PM 55.4 °F 46.4 °F 72% 29.87 in 10.0 mi North - - N/A   Clear
3:35 PM 57.2 °F 46.4 °F 67% 29.88 in 10.0 mi North - - N/A   Clear
3:55 PM 55.4 °F 46.4 °F 72% 29.88 in 10.0 mi North - - N/A   Clear
4:15 PM 55.4 °F 46.4 °F 72% 29.89 in 10.0 mi North - - N/A   Scattered Clouds
4:35 PM 55.4 °F 46.4 °F 72% 29.90 in 10.0 mi North - - N/A   Scattered Clouds
4:55 PM 55.4 °F 46.4 °F 72% 29.90 in 10.0 mi North - - N/A   Partly Cloudy
5:15 PM 53.6 °F 46.4 °F 77% 29.91 in 10.0 mi North - - N/A   Unknown
5:35 PM 50.0 °F 48.2 °F 94% 29.92 in 10.0 mi North - - N/A   Clear
5:55 PM 48.2 °F 46.4 °F 93% 29.93 in 10.0 mi North - - N/A   Clear
6:15 PM 48.2 °F 46.4 °F 93% 29.93 in 10.0 mi North - - N/A   Clear
6:35 PM 46.4 °F 46.4 °F 100% 29.93 in 10.0 mi North - - N/A   Clear
6:55 PM 46.4 °F 46.4 °F 100% 29.94 in 10.0 mi North - - N/A   Clear
7:15 PM 44.6 °F 44.6 °F 100% 29.94 in 10.0 mi North - - N/A   Clear
7:35 PM 44.6 °F 44.6 °F 100% 29.95 in 10.0 mi North - - N/A   Clear
7:55 PM 46.4 °F 46.4 °F 100% 29.96 in 10.0 mi North - - N/A   Clear
8:15 PM 46.4 °F 46.4 °F 100% 29.97 in 10.0 mi North - - N/A   Clear
8:35 PM 46.4 °F 46.4 °F 100% 29.97 in 10.0 mi North - - N/A   Clear
8:55 PM 44.6 °F 44.6 °F 100% 29.98 in 10.0 mi North - - N/A   Clear
9:15 PM 42.8 °F 42.8 °F 100% 29.98 in 5.0 mi North - - N/A   Clear
9:35 PM 41.0 °F 41.0 °F 100% 29.98 in 0.5 mi North - - N/A Fog Fog
9:55 PM 39.2 °F 39.2 °F 100% 29.98 in 0.2 mi North - - N/A Fog Fog
10:15 PM 41.0 °F 41.0 °F 100% 29.98 in 0.2 mi North - - N/A Fog Fog
10:35 PM 39.2 °F 39.2 °F 100% 29.98 in 0.5 mi North - - N/A Fog Fog
10:55 PM 41.0 °F 41.0 °F 100% 29.98 in 0.2 mi North - - N/A Fog Fog
11:15 PM 37.4 °F 37.4 °F 100% 29.97 in 0.2 mi North - - N/A Fog Fog
11:35 PM 39.2 °F 39.2 °F 100% 29.97 in 0.2 mi North - - N/A Fog Fog
11:55 PM 37.4 °F 37.4 °F 100% 29.97 in 0.2 mi North - - N/A Fog Fog